Location: Austin
(30.3000°N, 97.7500°W)
Time: 06:11:13
(UTC-05:00)

Molniya-1 - Pass Details

Date: 16 June 2025
Orbit: 422 x 13474 km, 63.0° (Epoch: 07 July)

Event Time Altitude Azimuth Distance (km) Brightness Sun altitude
Exits shadow 05:28:37 - 183° (S) 1,720 5.5 -11.9°
Reaches altitude 10° 05:29:01 10° 179° (S) 1,529 5.3 -11.8°
Maximum altitude 05:31:33 31° 113° (ESE) 785 4.4 -11.4°
Drops below altitude 10° 05:34:36 10° 47° (NE) 1,847 7.6 -10.8°
Sets 05:37:36 0° 37° (NE) 3,324 8.9 -10.3°
